Vorticity
7 7 7 8 10 15 17 15 12 13 11 10 11 12 14 15 17 18 16 13 11 10 8 11 14 16 12 33 12 0 16 -7 34 41 39 4 -14 25 24 -4 24 24 -2
7 7 6 9 11 15 16 15 12 12 11 10 11 11 13 14 15 17 17 15 10 9 8 9 13 16 19 19 27 22 10 10 2 -19 43 20 -6 46 24 31 17 -18 12
7 6 7 9 12 14 16 16 13 12 11 10 10 12 13 13 17 17 17 15 11 11 10 8 13 14 13 18 19 21 23 12 -3 -13 6 27 22 -11 38 31 -73 13 27
6 6 8 9 12 13 17 16 13 11 12 10 9 11 12 13 16 16 17 16 13 12 12 10 12 16 17 12 16 25 26 15 18 -35 -19 -8 6 36 54 -17 -15 17 15
7 7 7 10 11 12 17 16 14 11 12 10 9 10 11 13 14 15 16 18 14 10 9 10 12 15 18 17 14 17 27 19 28 9 12 5 -21 3 11 30 42 22 18
7 7 8 10 11 12 15 17 15 11 11 10 9 9 10 11 12 14 14 16 15 10 9 11 13 13 13 15 18 15 18 26 29 12 18 20 -3 -28 -12 5 -0 -2 -23
7 7 8 9 11 13 13 16 16 13 10 11 9 9 8 10 11 12 13 13 13 12 11 13 17 15 14 15 12 17 15 25 23 18 8 23 21 7 2 1 11 9 1
7 8 8 10 11 11 12 14 16 14 10 10 10 9 8 9 10 12 12 12 13 10 10 12 14 16 16 16 14 16 17 15 26 31 7 14 11 17 42 26 13 -21 7
7 8 7 9 10 11 11 13 15 15 11 10 11 10 8 8 9 10 13 14 12 13 9 11 13 16 17 17 17 16 13 22 22 26 39 -20 10 11 -12 -5 -2 -9 -1
8 7 7 8 10 10 11 12 13 14 12 10 9 12 10 7 8 9 10 14 16 13 12 12 13 16 19 17 17 20 14 10 19 26 30 28 7 15 -19 10 31 -5 5
8 8 7 8 10 9 11 11 13 14 13 12 10 10 11 11 6 8 9 10 15 18 15 12 12 10 14 19 18 18 22 17 14 19 31 38 -8 15 14 -11 -11 9 3
8 8 7 7 9 9 10 11 11 14 16 15 12 10 10 10 14 7 7 7 9 12 14 15 10 9 9 9 19 20 18 18 16 13 14 35 41 -15 10 28 18 -1 17
8 8 7 7 9 9 10 11 11 12 13 15 17 14 10 8 10 13 12 6 5 7 8 7 10 11 10 10 9 14 17 18 19 20 17 14 30 46 -17 10 18 -1 19
9 8 7 7 8 9 9 11 10 10 12 13 13 16 16 12 11 11 8 14 10 5 5 7 8 10 14 12 11 11 15 18 20 19 20 24 12 24 38 20 -28 -1 9
9 8 8 7 7 8 9 9 10 10 10 11 13 15 15 16 15 10 10 11 8 10 9 8 7 10 11 14 15 13 12 11 12 17 18 20 21 20 15 34 32 16 7
9 8 8 7 7 8 8 9 10 9 9 9 9 10 11 12 14 16 12 10 8 9 8 12 12 8 8 11 12 14 15 14 13 13 14 17 18 20 25 25 13 18 18
9 8 8 7 7 7 8 8 9 9 9 8 8 9 9 10 11 12 15 15 10 9 9 14 9 11 11 8 8 9 11 13 14 14 13 12 14 18 18 20 26 31 19
9 9 8 8 7 7 8 8 8 9 9 8 7 7 8 9 10 10 10 11 16 16 14 11 9 12 10 9 9 10 10 8 10 11 13 14 14 11 13 16 18 20 21
9 9 9 8 8 8 7 8 9 8 10 10 8 8 7 7 9 10 11 11 11 11 13 14 14 11 9 10 11 9 8 10 11 9 9 11 12 14 16 13 13 15 17
10 9 9 9 8 8 8 8 9 9 8 10 10 8 8 8 7 8 10 12 12 12 11 10 10 11 13 12 10 9 10 11 9 10 11 10 9 10 11 14 16 13 12
10 10 9 9 9 8 8 7 8 9 9 8 10 10 9 8 8 8 8 9 11 12 11 12 11 10 9 10 11 12 11 10 9 10 10 10 11 12 10 10 10 13 15
10 10 9 9 9 8 8 7 8 8 9 9 9 10 10 9 9 8 7 7 9 11 11 11 10 10 10 10 9 9 11 12 12 11 10 10 11 10 10 11 11 10 10
10 10 10 9 10 9 8 8 8 8 9 10 9 9 10 9 8 8 8 7 8 10 10 10 10 11 11 11 11 10 10 9 10 11 12 12 11 10 11 11 10 10 10
9 10 10 10 10 9 9 8 8 9 9 9 10 9 9 10 9 8 8 7 8 9 9 9 9 10 10 12 12 13 13 12 11 10 11 10 10 11 11 11 11 11 10
9 10 10 10 10 9 9 9 8 8 9 9 9 10 9 10 10 8 8 7 7 9 9 9 9 10 10 10 11 11 11 12 12 11 11 12 13 11 10 10 11 11 11
9 11 11 10 10 9 9 9 8 8 8 9 9 10 9 10 10 9 8 7 7 9 9 9 9 10 10 10 10 10 10 11 12 12 12 11 10 10 13 14 13 11 11
Height
3097 3088 3078 3070 3061 3052 3043 3035 3028 3021 3015 3009 3003 2997 2991 2986 2981 2978 2976 2975 2975 2976 2976 2975 2973 2973 2974 2977 2982 2988 2996 3005 3012 3018 3028 3033 3040 3048 3057 3066 3075 3087 3097
3095 3086 3078 3070 3062 3052 3043 3035 3029 3022 3016 3010 3004 2998 2992 2987 2983 2980 2977 2976 2975 2975 2976 2975 2975 2974 2975 2975 2979 2985 2991 2999 3009 3012 3018 3026 3035 3041 3050 3056 3066 3076 3087
3094 3086 3079 3071 3062 3052 3043 3036 3030 3024 3018 3012 3006 3000 2994 2989 2985 2981 2978 2977 2976 2975 2975 2974 2974 2974 2972 2973 2975 2980 2986 2993 3003 3007 3013 3020 3030 3038 3044 3053 3056 3072 3081
3094 3087 3080 3072 3062 3052 3044 3037 3031 3026 3020 3014 3009 3003 2997 2992 2987 2983 2980 2978 2977 2977 2976 2976 2974 2972 2971 2971 2973 2978 2982 2988 2996 3003 3008 3016 3022 3033 3039 3048 3054 3063 3071
3093 3087 3080 3072 3063 3054 3047 3039 3033 3028 3022 3016 3011 3006 3001 2996 2990 2986 2983 2981 2979 2978 2977 2976 2974 2973 2972 2972 2972 2975 2978 2982 2990 2999 3008 3015 3019 3025 3034 3041 3046 3053 3061
3094 3088 3081 3073 3065 3057 3049 3041 3035 3030 3025 3020 3015 3010 3004 2999 2994 2990 2986 2983 2981 2980 2979 2977 2976 2973 2972 2971 2973 2973 2973 2980 2986 2993 3000 3008 3014 3022 3027 3031 3037 3040 3049
3094 3088 3082 3074 3066 3059 3051 3044 3038 3032 3027 3022 3018 3013 3008 3003 2998 2993 2990 2987 2984 2982 2979 2977 2975 2974 2971 2970 2969 2969 2973 2976 2981 2988 2996 3002 3008 3016 3024 3029 3035 3039 3046
3095 3089 3082 3075 3068 3061 3053 3047 3040 3034 3029 3025 3020 3016 3011 3007 3002 2997 2993 2990 2987 2984 2981 2978 2975 2973 2970 2969 2969 2969 2972 2974 2978 2983 2990 2996 3005 3011 3018 3024 3029 3034 3040
3095 3090 3083 3076 3069 3062 3056 3049 3043 3037 3032 3027 3023 3018 3014 3010 3006 3002 2998 2994 2991 2987 2983 2980 2978 2975 2973 2970 2969 2969 2970 2974 2974 2978 2983 2990 2999 3006 3010 3016 3022 3027 3032
3096 3090 3084 3077 3071 3064 3057 3050 3045 3040 3034 3030 3026 3021 3017 3013 3010 3006 3002 2998 2995 2991 2988 2985 2982 2976 2973 2971 2971 2971 2970 2970 2971 2974 2977 2985 2992 2998 3004 3009 3014 3019 3025
3096 3091 3085 3079 3072 3066 3059 3053 3047 3042 3038 3034 3029 3025 3021 3016 3012 3009 3005 3001 2998 2994 2991 2988 2985 2980 2978 2975 2973 2971 2970 2969 2969 2971 2973 2978 2986 2992 2997 3003 3006 3011 3017
3097 3092 3086 3080 3075 3069 3062 3057 3051 3046 3042 3037 3033 3028 3024 3020 3015 3011 3007 3004 3000 2997 2994 2990 2986 2982 2979 2977 2975 2973 2971 2969 2970 2971 2971 2976 2981 2986 2992 2997 3001 3005 3010
3097 3092 3087 3082 3077 3072 3066 3061 3055 3050 3045 3040 3036 3032 3027 3023 3019 3014 3010 3006 3002 2999 2994 2991 2989 2986 2983 2981 2977 2974 2973 2972 2971 2970 2973 2974 2975 2979 2984 2989 2993 2998 3001
3096 3092 3088 3083 3078 3073 3069 3064 3058 3054 3048 3043 3039 3034 3030 3027 3023 3019 3014 3010 3006 3001 2997 2995 2993 2991 2988 2984 2980 2979 2977 2975 2973 2971 2969 2971 2973 2975 2977 2982 2987 2991 2994
3095 3092 3088 3083 3079 3075 3070 3066 3060 3055 3051 3046 3041 3037 3033 3029 3025 3020 3017 3013 3008 3005 3001 2998 2996 2994 2990 2987 2984 2982 2980 2977 2974 2971 2972 2972 2971 2971 2973 2976 2980 2983 2986
3095 3091 3088 3084 3080 3076 3071 3067 3062 3057 3052 3048 3044 3039 3035 3031 3028 3024 3020 3016 3012 3008 3005 3002 2999 2996 2993 2991 2989 2986 2981 2977 2973 2975 2972 2970 2968 2970 2971 2972 2973 2975 2977
3094 3091 3088 3084 3081 3076 3072 3067 3064 3059 3054 3050 3046 3042 3038 3034 3031 3027 3023 3018 3014 3011 3008 3005 3001 2998 2994 2991 2988 2985 2983 2984 2983 2979 2974 2974 2972 2971 2969 2969 2969 2969 2969
3093 3090 3087 3084 3081 3077 3073 3069 3065 3060 3056 3052 3049 3045 3041 3037 3033 3029 3025 3021 3018 3015 3010 3007 3003 3000 2997 2994 2991 2989 2987 2985 2981 2978 2976 2976 2973 2971 2970 2967 2966 2964 2963
3092 3089 3086 3084 3081 3077 3074 3070 3066 3062 3057 3053 3049 3046 3042 3038 3035 3031 3028 3025 3021 3017 3013 3009 3005 3002 2999 2996 2993 2990 2987 2984 2982 2981 2979 2977 2973 2972 2969 2967 2964 2962 2961
3090 3088 3085 3083 3080 3077 3073 3070 3066 3062 3058 3054 3050 3046 3043 3039 3036 3033 3030 3026 3023 3019 3015 3011 3007 3003 3000 2997 2994 2991 2989 2986 2983 2981 2978 2975 2973 2971 2967 2966 2962 2961 2959
3088 3085 3083 3081 3078 3075 3072 3069 3066 3062 3059 3055 3051 3047 3044 3041 3037 3034 3031 3027 3024 3020 3016 3013 3010 3006 3002 2998 2995 2992 2989 2986 2983 2980 2977 2975 2972 2969 2966 2962 2962 2960 2957
3085 3083 3081 3078 3076 3073 3070 3068 3064 3061 3058 3054 3050 3047 3043 3040 3037 3033 3030 3027 3024 3021 3017 3014 3011 3007 3004 3000 2996 2993 2989 2986 2983 2980 2977 2974 2971 2968 2966 2964 2961 2957 2956
3081 3080 3078 3076 3073 3071 3068 3066 3063 3059 3056 3053 3049 3046 3042 3039 3036 3033 3029 3026 3023 3020 3017 3014 3010 3007 3003 3000 2996 2992 2989 2985 2982 2979 2976 2973 2970 2967 2964 2962 2959 2956 2953
3078 3076 3074 3072 3070 3068 3066 3063 3060 3057 3054 3051 3048 3044 3041 3038 3035 3032 3029 3025 3022 3019 3016 3013 3009 3006 3002 2999 2995 2992 2988 2984 2980 2976 2974 2971 2967 2965 2962 2959 2955 2952 2950
3074 3072 3071 3069 3067 3065 3063 3060 3058 3055 3052 3049 3046 3043 3040 3037 3034 3031 3027 3024 3021 3017 3014 3011 3008 3004 3001 2997 2993 2990 2986 2983 2979 2975 2971 2967 2964 2961 2958 2954 2951 2948 2946
3070 3068 3067 3065 3063 3061 3059 3057 3054 3052 3049 3046 3043 3040 3037 3034 3032 3029 3026 3023 3019 3016 3013 3009 3006 3003 2999 2996 2992 2988 2984 2980 2976 2973 2969 2965 2961 2957 2954 2951 2948 2944 2941